Location: Piotrkow Trybunalski
(51.4000°N, 19.6830°E)
Time: 07:46:43
(UTC+02:00)

STRAND 1 - Pass Details

Date: 24 February 2024
Orbit: 764 x 779 km, 98.4° (Epoch: 24 April)

Event Time Altitude Azimuth Distance (km) Brightness Sun altitude
Rises 18:16:31 0° 15° (NNE) 3,273 ? -10.8°
Reaches altitude 10° 18:18:52 10° 18° (NNE) 2,339 ? -11.2°
Maximum altitude 18:24:01 74° 104° (ESE) 811 ? -12.0°
Drops below altitude 10° 18:29:08 10° 189° (S) 2,313 ? -12.8°
Sets 18:31:26 0° 191° (SSW) 3,233 ? -13.1°
